GW1637 Weather Reports


Display with metric or nautical units.
time (UTC)temp
F
wind
direction
speed
MPH
gust
MPH
rain 1hr
in
rain 24hr
in
rain mn
in
humidity
%
barometer
mb
20260505080152 46 254 0.0 0.0 0.00 0.00 0.00 93 1011.1
20260505075648 46 254 0.0 0.0 0.00 0.00 0.00 93 1010.7
20260505075146 46 187 0.0 0.0 0.00 0.00 0.00 93 1010.7
20260505074643 46 106 0.0 0.0 0.00 0.00 0.00 93 1010.7
20260505074139 46 106 0.0 1.0 0.00 0.00 0.00 92 1011.0
20260505073637 46 144 0.0 2.0 0.00 0.00 0.00 92 1011.0
20260505073135 46 192 1.0 2.0 0.00 0.00 0.00 92 1011.1
20260505072630 46 209 1.0 2.0 0.00 0.00 0.00 93 1010.9
20260505072127 46 151 1.0 3.0 0.00 0.00 0.00 93 1010.7
20260505071623 46 194 0.0 3.0 0.00 0.00 0.00 93 1010.9
20260505071121 46 132 0.0 2.0 0.00 0.00 0.00 93 1011.1
20260505070618 46 157 1.0 2.0 0.00 0.00 0.00 93 1011.2
20260505070114 46 215 0.0 2.0 0.00 0.00 0.00 93 1011.5
20260505065610 46 225 2.0 2.0 0.00 0.00 0.00 93 1011.3
20260505065107 46 234 0.0 2.0 0.00 0.00 0.00 93 1011.2
20260505064604 46 160 1.0 2.0 0.00 0.00 0.00 93 1011.6
20260505064103 46 180 0.0 1.0 0.00 0.00 0.00 93 1011.3
20260505063559 46 254 0.0 2.0 0.00 0.00 0.00 93 1011.3
20260505063055 46 165 0.0 2.0 0.00 0.00 0.00 93 1011.0
20260505062551 46 229 1.0 1.0 0.00 0.00 0.00 93 1011.3
20260505062049 46 186 0.0 2.0 0.00 0.00 0.00 93 1011.2
20260505061546 46 209 0.0 2.0 0.00 0.00 0.00 93 1011.2
20260505061044 45 90 0.0 1.0 0.00 0.00 0.00 92 1011.2
20260505060541 45 165 0.0 1.0 0.00 0.00 0.00 92 1011.5
20260505060038 46 237 0.0 1.0 0.00 0.16 0.16 92 1011.2
20260505055533 45 165 0.0 1.0 0.00 0.16 0.16 92 1011.3
20260505055030 45 180 0.0 2.0 0.00 0.16 0.16 92 1011.2
20260505054527 45 188 2.0 2.0 0.00 0.16 0.16 92 1011.1
20260505054026 46 209 1.0 2.0 0.00 0.16 0.16 92 1011.5
20260505053522 45 187 2.0 3.0 0.00 0.16 0.16 92 1010.9
20260505053019 46 195 2.0 3.0 0.00 0.16 0.16 92 1011.3
20260505052516 46 180 2.0 3.0 0.00 0.16 0.16 92 1011.3
20260505052014 46 204 2.0 2.0 0.00 0.16 0.16 92 1011.5
20260505051510 46 187 1.0 2.0 0.00 0.16 0.16 92 1011.2
20260505051009 46 166 1.0 3.0 0.00 0.16 0.16 92 1011.5
20260505050506 46 210 2.0 4.0 0.00 0.16 0.16 92 1011.8
20260505041434 46 166 3.0 4.0 0.00 0.16 0.16 92 1012.0
20260505040931 46 192 2.0 2.0 0.00 0.16 0.16 92 1012.2
20260505040429 46 231 2.0 2.0 0.02 0.16 0.16 92 1012.2
20260505035925 46 169 1.0 2.0 0.05 0.15 0.15 91 1012.2
20260505035421 46 220 1.0 3.0 0.14 0.15 0.15 91 1011.8
20260505034919 46 247 2.0 3.0 0.14 0.14 0.14 91 1011.9
20260505034415 46 270 0.0 2.0 0.09 0.13 0.13 90 1011.8
20260505033912 46 110 2.0 2.0 0.09 0.12 0.12 89 1012.0
20260505033409 46 324 2.0 3.0 0.07 0.11 0.11 89 1011.9
20260505032907 46 353 0.0 3.0 0.05 0.10 0.10 89 1012.4
20260505032403 47 325 1.0 12.0 0.07 0.10 0.10 88 1011.9
20260505031900 47 351 4.0 8.0 0.09 0.09 0.09 87 1011.9
20260505031357 48 28 5.0 7.0 0.12 0.09 0.09 86 1011.6
20260505030854 49 265 4.0 7.0 0.12 0.08 0.08 83 1011.5
20260505030350 50 256 3.0 11.0 0.07 0.07 0.07 81 1011.2
20260505025845 50 18 0.0 5.0 0.02 0.06 0.06 78 1011.5
20260505025343 50 286 0.0 4.0 0.00 0.05 0.05 76 1010.9
20260505024842 50 345 0.0 4.0 0.00 0.05 0.05 75 1010.9
20260505024339 50 334 1.0 3.0 0.00 0.05 0.05 73 1010.7
20260505023836 50 322 2.0 5.0 0.00 0.05 0.05 72 1010.4
20260505023333 51 349 3.0 5.0 0.00 0.05 0.05 72 1010.6
20260505022830 51 259 2.0 6.0 0.00 0.05 0.05 71 1010.5
20260505022327 51 337 1.0 8.0 0.00 0.05 0.05 69 1010.2
20260505021825 52 3 3.0 8.0 0.00 0.05 0.05 68 1010.3
20260505021321 52 18 6.0 7.0 0.00 0.05 0.05 65 1009.9
20260505020817 53 351 6.0 10.0 0.00 0.05 0.05 63 1010.2
20260505020313 54 2 3.0 3.0 0.00 0.05 0.05 62 1010.0
20260505015810 54 74 0.0 1.0 0.00 0.05 0.05 61 1010.0
20260505015307 54 119 0.0 2.0 0.00 0.05 0.05 61 1009.9
20260505014804 54 160 0.0 3.0 0.00 0.05 0.05 60 1009.9
20260505014301 54 180 1.0 3.0 0.00 0.05 0.05 60 1009.8
20260505013757 54 154 3.0 3.0 0.00 0.05 0.05 60 1009.8
20260505013254 54 180 0.0 3.0 0.00 0.05 0.05 60 1009.4
20260505012753 54 172 0.0 2.0 0.00 0.05 0.05 59 1009.3
20260505012250 54 120 2.0 2.0 0.00 0.05 0.05 60 1009.8
20260505011745 54 143 2.0 3.0 0.00 0.05 0.05 60 1009.9
20260505011243 55 348 2.0 2.0 0.00 0.05 0.05 60 1009.7
20260505010738 55 28 3.0 4.0 0.00 0.05 0.05 60 1009.8
20260505010235 55 98 4.0 5.0 0.00 0.05 0.05 59 1009.7
20260505005731 55 103 2.0 5.0 0.00 0.05 0.05 60 1009.9
20260505005228 55 79 2.0 3.0 0.00 0.05 0.05 58 1009.6
20260505004726 55 151 3.0 5.0 0.00 0.05 0.05 59 1009.6
20260505004222 54 249 1.0 5.0 0.00 0.05 0.05 61 1009.7
20260505003719 55 188 2.0 10.0 0.00 0.05 0.05 60 1009.7
20260505003217 55 138 3.0 13.0 0.00 0.05 0.05 59 1009.4
20260505002713 57 154 4.0 6.0 0.00 0.05 0.05 54 1010.0
20260505002211 58 150 3.0 6.0 0.00 0.05 0.05 48 1010.3
20260505001708 58 157 0.0 6.0 0.00 0.05 0.05 53 1009.9
20260505001205 58 255 0.0 4.0 0.00 0.05 0.05 52 1010.0
20260505000702 58 90 0.0 3.0 0.00 0.05 0.05 50 1009.8
20260505000200 58 240 7.0 7.0 0.00 0.05 0.05 48 1009.7
20260504235656 59 254 2.0 4.0 0.00 0.05 0.05 48 1009.6
20260504235152 59 270 5.0 6.0 0.00 0.05 0.05 48 1009.4
20260504234650 59 262 2.0 6.0 0.00 0.05 0.05 48 1009.3
20260504234147 59 232 2.0 7.0 0.00 0.05 0.05 47 1009.1
20260504233643 59 292 0.0 10.0 0.00 0.05 0.05 47 1009.3
20260504233139 59 299 4.0 8.0 0.00 0.05 0.05 46 1009.1
20260504232637 59 0 4.0 7.0 0.00 0.05 0.05 46 1009.1
20260504232133 59 346 9.0 11.0 0.00 0.05 0.05 46 1009.0
20260504231630 59 304 4.0 11.0 0.00 0.05 0.05 46 1009.0
20260504231126 59 335 4.0 8.0 0.00 0.05 0.05 46 1008.6
20260504230623 60 356 5.0 9.0 0.00 0.05 0.05 46 1008.7
20260504230122 60 274 3.0 12.0 0.00 0.05 0.05 46 1008.6
20260504225619 60 347 5.0 17.0 0.00 0.05 0.05 46 1008.7
20260504225115 62 320 3.0 15.0 0.00 0.05 0.05 42 1008.9
20260504224612 62 59 6.0 10.0 0.00 0.05 0.05 40 1009.0
20260504224109 63 341 2.0 5.0 0.00 0.05 0.05 40 1009.0
20260504223606 61 11 6.0 10.0 0.00 0.05 0.05 41 1009.0
20260504223102 60 350 4.0 10.0 0.00 0.05 0.05 42 1009.0
20260504222559 60 307 4.0 11.0 0.00 0.05 0.05 44 1009.1
20260504222056 60 349 4.0 14.0 0.00 0.05 0.05 43 1009.1
20260504221553 61 351 7.0 8.0 0.00 0.05 0.05 42 1008.7
20260504221050 61 331 0.0 15.0 0.00 0.05 0.05 42 1008.9
20260504220547 61 22 3.0 10.0 0.00 0.05 0.05 41 1008.7
20260504220044 61 357 12.0 18.0 0.00 0.05 0.05 40 1008.6
20260504215540 61 23 8.0 13.0 0.00 0.05 0.05 40 1007.9
20260504215038 61 345 8.0 17.0 0.00 0.05 0.05 39 1008.3
20260504214533 61 339 5.0 17.0 0.00 0.05 0.05 39 1007.9
20260504214030 62 334 18.0 21.0 0.00 0.05 0.05 38 1007.8
20260504213526 66 327 4.0 10.0 0.00 0.05 0.05 31 1007.3
20260504213024 66 78 3.0 7.0 0.00 0.05 0.05 34 1007.2
20260504212519 68 117 3.0 3.0 0.00 0.05 0.05 31 1007.2
20260504212017 67 90 2.0 6.0 0.00 0.05 0.05 33 1007.6
20260504211514 67 107 2.0 5.0 0.00 0.05 0.05 33 1007.7
20260504211011 66 90 2.0 5.0 0.00 0.05 0.05 32 1007.4
20260504210508 65 90 2.0 7.0 0.00 0.05 0.05 33 1007.7
20260504210005 67 101 5.0 7.0 0.00 0.05 0.05 32 1007.9
20260504205502 68 90 0.0 4.0 0.00 0.05 0.05 32 1007.8
20260504205000 67 82 3.0 7.0 0.00 0.05 0.05 34 1007.8
20260504204458 68 90 3.0 6.0 0.00 0.05 0.05 34 1007.7
20260504203957 67 110 4.0 7.0 0.00 0.05 0.05 34 1008.1
20260504203455 66 78 3.0 10.0 0.00 0.05 0.05 34 1008.4
20260504202950 67 335 0.0 4.0 0.00 0.05 0.05 35 1008.4
20260504202447 64 334 0.0 5.0 0.00 0.05 0.05 35 1008.5
20260504201944 62 54 1.0 4.0 0.00 0.05 0.05 40 1008.7
20260504201441 61 40 5.0 9.0 0.00 0.05 0.05 37 1008.9
20260504200939 60 284 5.0 10.0 0.00 0.05 0.05 44 1009.0
20260504200435 60 280 2.0 4.0 0.00 0.05 0.05 52 1009.2
20260504195932 60 279 3.0 5.0 0.00 0.05 0.05 48 1009.0
20260504195428 60 39 3.0 8.0 0.00 0.05 0.05 44 1009.0
20260504194924 59 99 5.0 8.0 0.00 0.05 0.05 45 1008.7
20260504194420 59 92 5.0 9.0 0.00 0.05 0.05 50 1008.7
20260504193916 58 90 7.0 8.0 0.00 0.05 0.05 56 1009.0
20260504193414 58 94 3.0 6.0 0.00 0.05 0.05 54 1009.2
20260504192913 58 110 2.0 5.0 0.00 0.05 0.05 51 1009.1
20260504192409 56 78 1.0 7.0 0.02 0.05 0.05 61 1009.4
20260504191908 56 74 0.0 2.0 0.09 0.05 0.05 68 1009.2
20260504191406 55 239 2.0 5.0 0.19 0.04 0.04 63 1009.3
20260504190901 57 172 4.0 11.0 0.14 0.02 0.02 59 1009.1
20260504190357 58 106 7.0 16.0 0.07 0.01 0.01 51 1008.9
20260504185854 61 137 9.0 19.0 0.00 0.00 0.00 45 1008.6
20260504185351 65 90 8.0 16.0 0.00 0.00 0.00 33 1008.1
20260504184847 66 90 6.0 6.0 0.00 0.00 0.00 27 1007.9
20260504184343 66 135 5.0 7.0 0.00 0.00 0.00 26 1008.0
20260504183839 67 100 4.0 5.0 0.00 0.00 0.00 27 1007.9
20260504183337 67 80 2.0 7.0 0.00 0.00 0.00 26 1007.7
20260504182834 68 5 1.0 4.0 0.00 0.00 0.00 26 1007.7
20260504182331 68 3 3.0 6.0 0.00 0.00 0.00 26 1007.8
20260504181828 68 55 0.0 5.0 0.00 0.00 0.00 26 1007.7
20260504181325 69 23 0.0 6.0 0.00 0.00 0.00 25 1007.7
20260504180824 69 21 3.0 10.0 0.00 0.00 0.00 26 1007.6
20260504180322 69 17 4.0 8.0 0.00 0.00 0.00 25 1007.7
20260504175820 69 16 3.0 14.0 0.00 0.00 0.00 26 1007.7
20260504175316 70 103 1.0 11.0 0.00 0.00 0.00 26 1007.8
20260504174815 71 1 5.0 8.0 0.00 0.00 0.00 25 1007.8
20260504174312 71 94 3.0 3.0 0.00 0.00 0.00 27 1007.9
20260504173809 70 126 6.0 7.0 0.00 0.00 0.00 26 1008.1
20260504173305 75 2 3.0 4.0 0.00 0.00 0.00 24 1008.3
20260504172803 72 67 3.0 5.0 0.00 0.00 0.00 25 1008.3
20260504172259 71 117 1.0 6.0 0.00 0.00 0.00 26 1008.3
20260504171755 70 81 5.0 8.0 0.00 0.00 0.00 26 1008.6
20260504171252 70 82 0.0 8.0 0.00 0.00 0.00 27 1008.5
20260504170749 69 81 2.0 5.0 0.00 0.00 0.00 27 1008.4
20260504170246 69 354 4.0 9.0 0.00 0.00 0.00 27 1008.7
20260504160205 65 244 5.0 9.0 0.00 0.00 0.00 29 1009.2
20260504151133 63 270 3.0 6.0 0.00 0.00 0.00 29 1009.6
20260504150630 63 266 2.0 11.0 0.00 0.00 0.00 29 1009.6
20260504150127 62 243 3.0 13.0 0.00 0.00 0.00 29 1009.6
20260504141055 60 239 4.0 14.0 0.00 0.00 0.00 28 1009.7
20260504140552 60 273 3.0 8.0 0.00 0.00 0.00 28 1009.4
20260504130516 53 151 3.0 4.0 0.00 0.00 0.00 37 1009.6
20260504110403 46 192 0.0 2.0 0.00 0.00 0.00 47 1009.6
20260504100320 46 180 0.0 2.0 0.00 0.00 0.00 47 1010.0
20260504081714 51 158 2.0 2.0 0.00 0.00 0.00 40 1010.6
20260504081210 50 166 0.0 2.0 0.00 0.00 0.00 41 1010.7
20260504080707 50 180 0.0 2.0 0.00 0.00 0.00 42 1010.7